カタログに戻る

FENGYUN 1C DEB

運用中SSO
NORAD 30395·DEBRIS·🇨🇳 China

打ち上げ May 10, 1999 から Taiyuan Satellite Launch Center

Loading…

次のパス (今後24時間)

TLE

最新Source: Space-Track

元期: Sep 14, 2026, 06:38 UTC

1 30395U 99025ADJ 26257.27676222  .00000414  00000-0  29471-3 0  9996
2 30395  98.9212 269.8595 0159345 346.8476  74.0450 13.97035155998704

AllMySatでFENGYUN 1C DEBをリアルタイム追跡

Download on the App Store